DW9987 Weather Reports


time (UTC)temp
C
wind
direction
speed
KPH
gust
KPH
rain 1hr
cm
rain 24hr
cm
rain mn
cm
humidity
%
barometer
mb
20260905043020 26 208 0.0 3.2 0.00 0.00 0.00 88 1011.7
20260905041514 26 209 0.0 4.8 0.00 0.00 0.00 89 1011.8
20260905040020 26 234 0.0 3.2 0.00 0.00 0.00 91 1011.9
20260905034513 26 238 0.0 0.0 0.00 0.00 0.00 92 1012.3
20260905033013 25 238 0.0 0.0 0.00 0.00 0.00 91 1012.5
20260905031513 26 237 0.0 0.0 0.00 0.00 0.00 91 1012.5
20260905030012 26 237 0.0 0.0 0.00 0.00 0.00 90 1012.4
20260905024513 26 237 0.0 0.0 0.00 0.00 0.00 90 1012.3
20260905023018 26 237 0.0 0.0 0.00 0.00 0.00 89 1012.2
20260905021510 26 237 0.0 0.0 0.00 0.00 0.00 89 1012.0
20260905020010 26 237 0.0 0.0 0.00 0.00 0.00 89 1011.7
20260905014509 26 237 0.0 0.0 0.00 0.00 0.00 89 1011.5
20260905013009 26 237 0.0 0.0 0.00 0.00 0.00 88 1011.4
20260905011510 27 237 0.0 0.0 0.00 0.00 0.00 88 1011.4
20260905010011 27 237 0.0 0.0 0.00 0.00 0.00 87 1011.0
20260905004508 27 237 0.0 0.0 0.00 0.00 0.00 86 1011.0
20260905003007 28 237 0.0 0.0 0.00 0.00 0.00 86 1010.8
20260905001507 28 238 0.0 0.0 0.00 0.00 0.00 83 1011.1
20260905000007 29 238 0.0 0.0 0.00 0.00 0.00 82 1011.1
20260904234506 30 237 0.0 0.0 0.00 0.00 0.00 79 1010.9
20260904233004 31 237 0.0 1.6 0.00 0.00 0.00 75 1011.0
20260904231502 32 244 0.0 6.4 0.00 0.00 0.00 67 1011.1
20260904230000 32 266 0.0 6.4 0.00 0.00 0.00 67 1011.2
20260904224501 32 188 1.6 8.0 0.00 0.00 0.00 67 1011.1
20260904223103 32 188 1.6 9.7 0.00 0.00 0.00 66 1011.4
20260904221602 32 184 1.6 8.0 0.00 0.00 0.00 65 1011.4
20260904220059 32 193 1.6 9.7 0.00 0.00 0.00 68 1011.4
20260904214557 32 205 0.0 3.2 0.00 0.00 0.00 74 1011.2
20260904213057 32 225 0.0 4.8 0.00 0.00 0.00 68 1011.1
20260904211557 32 192 3.2 11.3 0.00 0.00 0.00 68 1011.1
20260904210059 32 202 6.4 12.9 0.00 0.00 0.00 67 1011.2
20260904204555 32 224 3.2 9.7 0.00 0.00 0.00 67 1011.4
20260904203053 32 197 0.0 8.0 0.00 0.00 0.00 72 1011.7
20260904201610 32 215 3.2 6.4 0.00 0.00 0.00 68 1011.9
20260904200050 32 203 0.0 9.7 0.00 0.00 0.00 69 1012.2
20260904194602 32 203 1.6 8.0 0.00 0.00 0.00 68 1012.3
20260904193045 31 183 0.0 8.0 0.00 0.00 0.00 68 1012.7
20260904191544 31 171 1.6 8.0 0.00 0.00 0.00 70 1012.9
20260904190041 31 207 1.6 8.0 0.00 0.00 0.00 68 1013.1
20260904184540 31 168 0.0 6.4 0.00 0.00 0.00 68 1013.1
20260904183037 30 202 0.0 4.8 0.00 0.00 0.00 68 1013.3
20260904181537 30 219 4.8 17.7 0.00 0.00 0.00 69 1013.6
20260904180036 30 104 1.6 9.7 0.00 0.00 0.00 69 1013.9
20260904174543 30 245 0.0 4.8 0.00 0.00 0.00 71 1014.2
20260904173038 30 336 0.0 14.5 0.00 0.00 0.00 71 1014.4
20260904171538 30 146 0.0 6.4 0.00 0.00 0.00 73 1014.4
20260904170035 30 16 1.6 12.9 0.00 0.00 0.00 72 1014.4
20260904164533 30 360 3.2 20.9 0.00 0.00 0.00 73 1014.5
20260904163034 30 292 0.0 3.2 0.00 0.00 0.00 76 1014.5
20260904161535 30 13 0.0 6.4 0.00 0.00 0.00 73 1014.3
20260904160028 30 238 0.0 3.2 0.00 0.00 0.00 76 1014.1
20260904154524 29 5 1.6 4.8 0.00 0.00 0.00 74 1014.0
20260904153022 28 321 0.0 3.2 0.00 0.00 0.00 78 1013.9
20260904151518 28 291 0.0 0.0 0.00 0.00 0.00 79 1013.7
20260904150027 27 292 0.0 0.0 0.00 0.00 0.00 82 1013.5
20260904144513 27 292 0.0 4.8 0.00 0.00 0.00 78 1013.3
20260904143013 27 209 0.0 3.2 0.00 0.00 0.00 79 1013.3
20260904141507 26 218 0.0 3.2 0.00 0.00 0.00 81 1013.4
20260904140005 26 326 0.0 1.6 0.00 0.00 0.00 82 1013.3
20260904134503 26 12 0.0 0.0 0.00 0.00 0.00 83 1013.2
20260904133059 25 262 0.0 1.6 0.00 0.00 0.00 85 1013.1
20260904131559 24 269 0.0 0.0 0.00 0.00 0.00 89 1013.0
20260904130055 24 269 0.0 0.0 0.00 0.00 0.00 88 1012.7
20260904124555 24 269 0.0 0.0 0.00 0.00 0.00 87 1012.4
20260904123055 24 269 0.0 0.0 0.00 0.00 0.00 85 1012.2
20260904121555 25 269 0.0 0.0 0.00 0.00 0.00 83 1012.0
20260904120105 25 269 0.0 0.0 0.00 0.00 0.00 82 1011.9
20260904114555 25 273 0.0 4.8 0.00 0.00 0.00 81 1011.6
20260904113054 25 257 0.0 6.4 0.00 0.00 0.00 80 1011.3
20260904111552 25 252 0.0 8.0 0.00 0.00 0.00 80 1011.2
20260904110050 25 245 1.6 8.0 0.00 0.00 0.00 80 1011.2
20260904104551 25 249 1.6 8.0 0.00 0.00 0.00 80 1011.2
20260904103048 25 205 1.6 8.0 0.00 0.00 0.00 80 1011.5
20260904101548 25 246 0.0 3.2 0.00 0.00 0.00 81 1011.8
20260904100050 25 266 0.0 3.2 0.00 0.00 0.00 82 1011.8
20260904094546 25 238 0.0 3.2 0.00 0.00 0.00 84 1012.0
20260904093043 24 235 0.0 1.6 0.00 0.00 0.00 86 1011.9
20260904091543 24 236 0.0 0.0 0.00 0.00 0.00 86 1012.1
20260904090043 25 236 0.0 0.0 0.00 0.00 0.00 86 1012.1
20260904084541 25 236 0.0 0.0 0.00 0.00 0.00 87 1012.1
20260904083043 25 203 0.0 0.0 0.00 0.00 0.00 89 1012.0
20260904081538 24 210 0.0 3.2 0.00 0.00 0.00 92 1011.7
20260904080038 24 223 0.0 0.0 0.00 0.00 0.00 93 1011.7
20260904074537 24 223 0.0 1.6 0.00 0.00 0.00 94 1011.4
20260904073035 24 198 0.0 4.8 0.00 0.00 0.00 94 1011.3
20260904071533 23 211 0.0 0.0 0.00 0.00 0.00 94 1011.5
20260904070032 24 211 0.0 0.0 0.00 0.00 0.00 94 1011.8
20260904064529 24 211 0.0 0.0 0.00 0.00 0.00 94 1012.0
20260904063030 24 211 0.0 0.0 0.00 0.00 0.00 93 1012.2
20260904061526 24 211 0.0 0.0 0.00 0.00 0.00 93 1012.4
20260904060025 24 211 0.0 0.0 0.00 0.00 0.00 93 1012.5
20260904054524 25 211 0.0 0.0 0.00 0.00 0.00 93 1012.6
20260904053022 25 211 0.0 0.0 0.00 0.00 0.00 93 1012.5
20260904051520 25 211 0.0 3.2 0.00 0.00 0.00 93 1012.3
20260904050021 25 236 0.0 1.6 0.00 0.00 0.00 93 1012.2
20260904044519 25 311 0.0 0.0 0.00 0.00 0.00 93 1012.2